TimeEDT,TemperatureF,Dew PointF,Humidity,Sea Level PressureIn,VisibilityMPH,Wind Direction,Wind SpeedMPH,Gust SpeedMPH,PrecipitationIn,Events,Conditions,WindDirDegrees,DateUTC
12:15 AM,53.6,51.8,94,30.36,10.0,Calm,Calm,-,N/A,,Clear,0,2013-08-25 04:15:00
12:35 AM,53.6,51.8,94,30.35,10.0,Calm,Calm,-,N/A,,Clear,0,2013-08-25 04:35:00
12:55 AM,53.6,50.0,88,30.35,10.0,Calm,Calm,-,N/A,,Clear,0,2013-08-25 04:55:00
1:15 AM,51.8,48.2,88,30.35,10.0,Calm,Calm,-,N/A,,Clear,0,2013-08-25 05:15:00
1:35 AM,51.8,48.2,88,30.34,10.0,Calm,Calm,-,N/A,,Clear,0,2013-08-25 05:35:00
1:55 AM,50.0,46.4,87,30.34,10.0,Calm,Calm,-,N/A,,Clear,0,2013-08-25 05:55:00
2:15 AM,50.0,48.2,94,30.34,10.0,Calm,Calm,-,N/A,,Clear,0,2013-08-25 06:15:00
2:35 AM,48.2,46.4,93,30.34,10.0,Calm,Calm,-,N/A,,Clear,0,2013-08-25 06:35:00
2:55 AM,48.2,46.4,93,30.34,10.0,Calm,Calm,-,N/A,,Clear,0,2013-08-25 06:55:00
3:15 AM,48.2,46.4,93,30.34,10.0,Calm,Calm,-,N/A,,Clear,0,2013-08-25 07:15:00
3:35 AM,48.2,46.4,93,30.34,10.0,Calm,Calm,-,N/A,,Clear,0,2013-08-25 07:35:00
3:55 AM,48.2,46.4,93,30.34,10.0,Calm,Calm,-,N/A,,Clear,0,2013-08-25 07:55:00
4:15 AM,48.2,44.6,87,30.34,10.0,Calm,Calm,-,N/A,,Scattered Clouds,0,2013-08-25 08:15:00
4:35 AM,48.2,46.4,93,30.35,10.0,Calm,Calm,-,N/A,,Partly Cloudy,0,2013-08-25 08:35:00
4:55 AM,46.4,44.6,93,30.35,10.0,Calm,Calm,-,N/A,,Mostly Cloudy,0,2013-08-25 08:55:00
5:15 AM,48.2,46.4,93,30.36,10.0,Calm,Calm,-,N/A,,Mostly Cloudy,0,2013-08-25 09:15:00
5:35 AM,48.2,46.4,93,30.37,10.0,Calm,Calm,-,N/A,,Clear,0,2013-08-25 09:35:00
5:55 AM,48.2,46.4,93,30.38,10.0,Calm,Calm,-,N/A,,Clear,0,2013-08-25 09:55:00
6:15 AM,48.2,48.2,100,30.39,10.0,Calm,Calm,-,N/A,,Clear,0,2013-08-25 10:15:00
6:35 AM,48.2,46.4,93,30.39,10.0,Calm,Calm,-,N/A,,Mostly Cloudy,0,2013-08-25 10:35:00
6:55 AM,50.0,48.2,94,30.40,10.0,Calm,Calm,-,N/A,,Partly Cloudy,0,2013-08-25 10:55:00
7:15 AM,51.8,48.2,88,30.40,10.0,Calm,Calm,-,N/A,,Clear,0,2013-08-25 11:15:00
7:35 AM,55.4,51.8,88,30.41,10.0,Calm,Calm,-,N/A,,Clear,0,2013-08-25 11:35:00
7:55 AM,59.0,53.6,82,30.42,10.0,Calm,Calm,-,N/A,,Clear,0,2013-08-25 11:55:00
8:15 AM,60.8,59.0,94,30.42,10.0,NW,3.5,-,N/A,,Clear,320,2013-08-25 12:15:00
8:35 AM,64.4,60.8,88,30.42,10.0,NW,4.6,-,N/A,,Clear,320,2013-08-25 12:35:00
8:55 AM,66.2,60.8,83,30.41,10.0,WNW,5.8,-,N/A,,Clear,300,2013-08-25 12:55:00
9:15 AM,69.8,59.0,68,30.41,10.0,NW,5.8,-,N/A,,Clear,310,2013-08-25 13:15:00
9:35 AM,69.8,57.2,64,30.42,10.0,NW,5.8,-,N/A,,Clear,310,2013-08-25 13:35:00
9:55 AM,71.6,57.2,60,30.42,10.0,WNW,8.1,-,N/A,,Clear,300,2013-08-25 13:55:00
10:15 AM,71.6,55.4,57,30.42,10.0,NW,5.8,-,N/A,,Clear,320,2013-08-25 14:15:00
10:35 AM,73.4,57.2,57,30.42,10.0,NW,4.6,-,N/A,,Clear,310,2013-08-25 14:35:00
10:55 AM,73.4,57.2,57,30.41,10.0,NW,4.6,-,N/A,,Clear,310,2013-08-25 14:55:00
11:15 AM,75.2,57.2,53,30.40,10.0,Calm,Calm,-,N/A,,Clear,0,2013-08-25 15:15:00
11:35 AM,75.2,55.4,50,30.40,10.0,West,4.6,-,N/A,,Clear,280,2013-08-25 15:35:00
11:55 AM,75.2,55.4,50,30.39,10.0,WNW,5.8,-,N/A,,Clear,300,2013-08-25 15:55:00
12:15 PM,78.8,53.6,42,30.39,10.0,Calm,Calm,-,N/A,,Clear,0,2013-08-25 16:15:00
12:35 PM,77.0,51.8,41,30.38,10.0,Calm,Calm,-,N/A,,Clear,0,2013-08-25 16:35:00
12:55 PM,80.6,53.6,39,30.37,10.0,West,5.8,-,N/A,,Clear,280,2013-08-25 16:55:00
1:15 PM,78.8,53.6,42,30.36,10.0,West,4.6,-,N/A,,Clear,270,2013-08-25 17:15:00
1:35 PM,80.6,51.8,37,30.36,10.0,SW,6.9,-,N/A,,Clear,230,2013-08-25 17:35:00
1:55 PM,80.6,51.8,37,30.36,10.0,SSE,3.5,-,N/A,,Clear,160,2013-08-25 17:55:00
2:15 PM,80.6,53.6,39,30.35,10.0,West,6.9,-,N/A,,Clear,280,2013-08-25 18:15:00
2:35 PM,80.6,51.8,37,30.34,10.0,WNW,8.1,-,N/A,,Clear,300,2013-08-25 18:35:00
2:55 PM,80.6,48.2,32,30.34,10.0,WSW,8.1,-,N/A,,Clear,250,2013-08-25 18:55:00
3:15 PM,82.4,48.2,30,30.33,10.0,WSW,8.1,-,N/A,,Clear,250,2013-08-25 19:15:00
3:35 PM,82.4,50.0,32,30.33,10.0,WSW,3.5,-,N/A,,Clear,250,2013-08-25 19:35:00
3:55 PM,82.4,51.8,35,30.32,10.0,NW,5.8,-,N/A,,Clear,320,2013-08-25 19:55:00
4:15 PM,82.4,51.8,35,30.32,10.0,West,4.6,-,N/A,,Clear,260,2013-08-25 20:15:00
4:35 PM,80.6,55.4,42,30.32,10.0,South,6.9,-,N/A,,Clear,170,2013-08-25 20:35:00
4:55 PM,80.6,55.4,42,30.31,10.0,South,8.1,-,N/A,,Clear,170,2013-08-25 20:55:00
5:15 PM,78.8,53.6,42,30.30,10.0,South,12.7,-,N/A,,Clear,170,2013-08-25 21:15:00
5:35 PM,78.8,51.8,39,30.30,10.0,South,11.5,-,N/A,,Clear,170,2013-08-25 21:35:00
5:55 PM,77.0,50.0,39,30.30,10.0,South,9.2,-,N/A,,Clear,180,2013-08-25 21:55:00
6:15 PM,75.2,50.0,41,30.30,10.0,South,10.4,-,N/A,,Clear,180,2013-08-25 22:15:00
6:35 PM,75.2,50.0,41,30.29,10.0,South,8.1,-,N/A,,Clear,190,2013-08-25 22:35:00
6:55 PM,73.4,51.8,47,30.29,10.0,South,6.9,-,N/A,,Clear,180,2013-08-25 22:55:00
7:15 PM,71.6,51.8,50,30.28,10.0,South,5.8,-,N/A,,Clear,190,2013-08-25 23:15:00
7:35 PM,69.8,51.8,53,30.28,10.0,South,4.6,-,N/A,,Clear,180,2013-08-25 23:35:00
7:55 PM,68.0,51.8,56,30.28,10.0,South,4.6,-,N/A,,Clear,190,2013-08-25 23:55:00
8:15 PM,66.2,51.8,60,30.28,10.0,South,4.6,-,N/A,,Clear,190,2013-08-26 00:15:00
8:35 PM,66.2,51.8,60,30.29,10.0,SSW,5.8,-,N/A,,Clear,200,2013-08-26 00:35:00
8:55 PM,66.2,51.8,60,30.28,10.0,SSW,6.9,-,N/A,,Clear,210,2013-08-26 00:55:00
9:15 PM,64.4,51.8,64,30.29,10.0,SSW,4.6,-,N/A,,Clear,210,2013-08-26 01:15:00
9:35 PM,64.4,51.8,64,30.29,10.0,SW,4.6,-,N/A,,Clear,230,2013-08-26 01:35:00
9:55 PM,62.6,51.8,68,30.29,10.0,SW,4.6,-,N/A,,Clear,220,2013-08-26 01:55:00
10:15 PM,62.6,51.8,68,30.29,10.0,WSW,4.6,-,N/A,,Clear,240,2013-08-26 02:15:00
10:35 PM,60.8,51.8,72,30.29,10.0,SW,3.5,-,N/A,,Clear,230,2013-08-26 02:35:00
10:55 PM,60.8,51.8,72,30.29,10.0,SW,3.5,-,N/A,,Clear,230,2013-08-26 02:55:00
11:15 PM,60.8,51.8,72,30.29,10.0,SW,4.6,-,N/A,,Clear,230,2013-08-26 03:15:00
11:35 PM,60.8,53.6,77,30.29,10.0,SW,6.9,-,N/A,,Clear,230,2013-08-26 03:35:00
11:55 PM,60.8,53.6,77,30.28,10.0,SW,6.9,-,N/A,,Clear,230,2013-08-26 03:55:00